Location: Unspecified
(0.0000°N, 0.0000°E)
Time: 00:45:59
(UTC+00:00)

SRMSAT - Pass Details

Date: 03 April 2019
Orbit: 848 x 866 km, 20.0° (Epoch: 19 July)

Event Time Altitude Azimuth Distance (km) Brightness Sun altitude
Exits shadow 04:28:28 10° 337° (NNW) 2,454 ? -23.6°
Maximum altitude 04:31:55 16° 13° (NNE) 2,079 ? -22.8°
Drops below altitude 10° 04:35:22 10° 49° (NE) 2,464 ? -21.9°
Sets 04:39:01 0° 71° (ENE) 3,404 ? -21.0°
